Time,TemperatureF,DewpointF,PressureIn,WindDirection,WindDirectionDegrees,WindSpeedMPH,WindSpeedGustMPH,Humidity,HourlyPrecipIn,Conditions,Clouds,dailyrainin,SolarRadiationWatts/m^2,SoftwareType,DateUTC
2013-01-14 00:02:00,25.0,24.0,-100.00,ENE,76,2.0,2.0,96,0.00,,,0.01,0.000000,,2013-01-14 08:02:00,
2013-01-14 00:11:00,25.0,24.0,-100.00,ENE,76,2.0,2.0,96,0.00,,,0.01,0.000000,,2013-01-14 08:11:00,
2013-01-14 00:33:00,25.0,24.0,-100.00,East,85,1.0,3.0,97,0.00,,,0.01,0.000000,,2013-01-14 08:33:00,
2013-01-14 00:43:00,25.0,24.0,-100.00,East,85,1.0,3.0,97,0.00,,,0.01,0.000000,,2013-01-14 08:43:00,
2013-01-14 00:53:00,25.0,24.0,-100.00,East,85,1.0,3.0,97,0.00,,,0.01,0.000000,,2013-01-14 08:53:00,
2013-01-14 01:02:00,25.0,24.0,-100.00,East,85,1.0,3.0,97,0.00,,,0.01,0.000000,,2013-01-14 09:02:00,
2013-01-14 01:11:00,25.0,24.0,-100.00,East,85,1.0,3.0,97,0.00,,,0.01,0.000000,,2013-01-14 09:11:00,
2013-01-14 01:34:00,24.0,23.0,-100.00,ENE,64,1.0,2.0,97,0.00,,,0.01,0.000000,,2013-01-14 09:34:00,
2013-01-14 01:43:00,24.0,23.0,-100.00,ENE,64,1.0,2.0,97,0.00,,,0.01,0.000000,,2013-01-14 09:43:00,
2013-01-14 01:53:00,24.0,23.0,-100.00,ENE,64,1.0,2.0,97,0.00,,,0.01,0.000000,,2013-01-14 09:53:00,
2013-01-14 02:02:00,24.0,23.0,-100.00,ENE,64,1.0,2.0,97,0.00,,,0.01,0.000000,,2013-01-14 10:02:00,
2013-01-14 02:11:00,24.0,23.0,-100.00,ENE,64,1.0,2.0,97,0.00,,,0.01,0.000000,,2013-01-14 10:11:00,
2013-01-14 02:33:00,23.0,22.0,-100.00,ENE,75,1.0,3.0,96,0.00,,,0.01,0.000000,,2013-01-14 10:33:00,
2013-01-14 02:43:00,23.0,22.0,-100.00,ENE,75,1.0,3.0,96,0.00,,,0.01,0.000000,,2013-01-14 10:43:00,
2013-01-14 02:52:00,23.0,22.0,-100.00,ENE,75,1.0,3.0,96,0.00,,,0.01,0.000000,,2013-01-14 10:52:00,
2013-01-14 03:02:00,23.0,22.0,-100.00,ENE,75,1.0,3.0,96,0.00,,,0.01,0.000000,,2013-01-14 11:02:00,
2013-01-14 03:11:00,23.0,22.0,-100.00,ENE,75,1.0,3.0,96,0.00,,,0.01,0.000000,,2013-01-14 11:11:00,
2013-01-14 03:12:00,22.0,21.0,-100.00,ENE,77,2.0,3.0,96,0.00,,,-99.99,0.000000,,2013-01-14 11:12:00,
2013-01-14 03:43:00,22.0,21.0,-100.00,ENE,77,2.0,3.0,96,0.00,,,-99.99,0.000000,,2013-01-14 11:43:00,
2013-01-14 03:53:00,22.0,21.0,-100.00,ENE,77,2.0,3.0,96,0.00,,,-99.99,0.000000,,2013-01-14 11:53:00,
2013-01-14 04:02:00,22.0,21.0,-100.00,ENE,77,2.0,3.0,96,0.00,,,-99.99,0.000000,,2013-01-14 12:02:00,
2013-01-14 04:12:00,22.0,21.0,-100.00,ENE,73,1.0,2.0,96,0.00,,,0.01,0.000000,,2013-01-14 12:12:00,
2013-01-14 04:33:00,22.0,21.0,-100.00,ENE,73,1.0,2.0,96,0.00,,,0.01,0.000000,,2013-01-14 12:33:00,
2013-01-14 04:43:00,22.0,21.0,-100.00,ENE,73,1.0,2.0,96,0.00,,,0.01,0.000000,,2013-01-14 12:43:00,
2013-01-14 04:53:00,22.0,21.0,-100.00,ENE,73,1.0,2.0,96,0.00,,,0.01,0.000000,,2013-01-14 12:53:00,
2013-01-14 05:03:00,22.0,21.0,-100.00,ENE,73,1.0,2.0,96,0.00,,,0.01,0.000000,,2013-01-14 13:03:00,
2013-01-14 05:12:00,23.0,22.0,-100.00,ENE,71,1.0,2.0,96,0.00,,,0.01,0.000000,,2013-01-14 13:12:00,
2013-01-14 05:33:00,23.0,22.0,-100.00,ENE,71,1.0,2.0,96,0.00,,,0.01,0.000000,,2013-01-14 13:33:00,
2013-01-14 05:43:00,23.0,22.0,-100.00,ENE,71,1.0,2.0,96,0.00,,,0.01,0.000000,,2013-01-14 13:43:00,
2013-01-14 05:53:00,23.0,22.0,-100.00,ENE,71,1.0,2.0,96,0.00,,,0.01,0.000000,,2013-01-14 13:53:00,
2013-01-14 06:02:00,23.0,22.0,-100.00,ENE,71,1.0,2.0,96,0.00,,,0.01,0.000000,,2013-01-14 14:02:00,
2013-01-14 06:12:00,24.0,23.0,-100.00,ENE,77,1.0,2.0,96,0.00,,,0.01,0.000000,,2013-01-14 14:12:00,
2013-01-14 06:33:00,24.0,23.0,-100.00,ENE,77,1.0,2.0,96,0.00,,,0.01,0.000000,,2013-01-14 14:33:00,
2013-01-14 06:43:00,24.0,23.0,-100.00,ENE,77,1.0,2.0,96,0.00,,,0.01,0.000000,,2013-01-14 14:43:00,
2013-01-14 06:53:00,24.0,23.0,-100.00,ENE,77,1.0,2.0,96,0.00,,,0.01,0.000000,,2013-01-14 14:53:00,
2013-01-14 07:03:00,24.0,23.0,-100.00,ENE,77,1.0,2.0,96,0.00,,,0.01,0.000000,,2013-01-14 15:03:00,
2013-01-14 07:12:00,24.0,23.0,-100.00,ENE,76,1.0,2.0,96,0.00,,,-99.99,0.000000,,2013-01-14 15:12:00,
2013-01-14 07:33:00,24.0,23.0,-100.00,ENE,76,1.0,2.0,96,0.00,,,-99.99,0.000000,,2013-01-14 15:33:00,
2013-01-14 07:43:00,24.0,23.0,-100.00,ENE,76,1.0,2.0,96,0.00,,,-99.99,0.000000,,2013-01-14 15:43:00,
2013-01-14 07:53:00,24.0,23.0,-100.00,ENE,76,1.0,2.0,96,0.00,,,-99.99,0.000000,,2013-01-14 15:53:00,
2013-01-14 08:02:00,24.0,23.0,-100.00,ENE,76,1.0,2.0,96,0.00,,,-99.99,0.000000,,2013-01-14 16:02:00,
2013-01-14 08:12:00,24.0,23.0,-100.00,ESE,105,1.0,3.0,96,0.00,,,0.01,2.000000,,2013-01-14 16:12:00,
2013-01-14 08:33:00,24.0,23.0,-100.00,ESE,105,1.0,3.0,96,0.00,,,0.01,2.000000,,2013-01-14 16:33:00,
2013-01-14 08:43:00,24.0,23.0,-100.00,ESE,105,1.0,3.0,96,0.00,,,0.01,2.000000,,2013-01-14 16:43:00,
2013-01-14 08:53:00,24.0,23.0,-100.00,ESE,105,1.0,3.0,96,0.00,,,0.01,2.000000,,2013-01-14 16:53:00,
2013-01-14 09:03:00,24.0,23.0,-100.00,ESE,105,1.0,3.0,96,0.00,,,0.01,2.000000,,2013-01-14 17:03:00,
2013-01-14 09:12:00,25.0,24.0,-100.00,East,79,1.0,3.0,97,0.00,,,0.01,24.000000,,2013-01-14 17:12:00,
2013-01-14 09:33:00,25.0,24.0,-100.00,East,79,1.0,3.0,97,0.00,,,0.01,24.000000,,2013-01-14 17:33:00,
2013-01-14 09:43:00,25.0,24.0,-100.00,East,79,1.0,3.0,97,0.00,,,0.01,24.000000,,2013-01-14 17:43:00,
2013-01-14 09:53:00,25.0,24.0,-100.00,East,79,1.0,3.0,97,0.00,,,0.01,24.000000,,2013-01-14 17:53:00,
2013-01-14 10:02:00,25.0,24.0,-100.00,East,79,1.0,3.0,97,0.00,,,0.01,24.000000,,2013-01-14 18:02:00,
2013-01-14 10:12:00,26.0,25.0,-100.00,ENE,72,1.0,4.0,96,0.00,,,0.01,54.000000,,2013-01-14 18:12:00,
2013-01-14 10:33:00,26.0,25.0,-100.00,ENE,72,1.0,4.0,96,0.00,,,0.01,54.000000,,2013-01-14 18:33:00,
2013-01-14 10:43:00,26.0,25.0,-100.00,ENE,72,1.0,4.0,96,0.00,,,0.01,54.000000,,2013-01-14 18:43:00,
2013-01-14 10:53:00,26.0,25.0,-100.00,ENE,72,1.0,4.0,96,0.00,,,0.01,54.000000,,2013-01-14 18:53:00,
2013-01-14 11:02:00,26.0,25.0,-100.00,ENE,72,1.0,4.0,96,0.00,,,0.01,54.000000,,2013-01-14 19:02:00,
2013-01-14 11:12:00,27.0,26.0,-100.00,ESE,119,2.0,7.0,96,0.00,,,0.01,93.000000,,2013-01-14 19:12:00,
2013-01-14 11:43:00,27.0,26.0,-100.00,ESE,119,2.0,7.0,96,0.00,,,0.01,93.000000,,2013-01-14 19:43:00,
2013-01-14 11:53:00,27.0,26.0,-100.00,ESE,119,2.0,7.0,96,0.00,,,0.01,93.000000,,2013-01-14 19:53:00,
2013-01-14 12:03:00,27.0,26.0,-100.00,ESE,119,2.0,7.0,96,0.00,,,0.01,93.000000,,2013-01-14 20:03:00,
2013-01-14 12:12:00,28.0,27.0,-100.00,East,84,1.0,5.0,97,0.00,,,0.01,83.000000,,2013-01-14 20:12:00,
2013-01-14 12:33:00,28.0,27.0,-100.00,East,84,1.0,5.0,97,0.00,,,0.01,83.000000,,2013-01-14 20:33:00,
2013-01-14 12:43:00,28.0,27.0,-100.00,East,84,1.0,5.0,97,0.00,,,0.01,83.000000,,2013-01-14 20:43:00,
2013-01-14 12:53:00,28.0,27.0,-100.00,East,84,1.0,5.0,97,0.00,,,0.01,83.000000,,2013-01-14 20:53:00,
2013-01-14 13:02:00,28.0,27.0,-100.00,East,84,1.0,5.0,97,0.00,,,0.01,83.000000,,2013-01-14 21:02:00,
2013-01-14 13:33:00,28.0,28.0,-100.00,ENE,75,2.0,4.0,98,0.00,,,0.01,86.000000,,2013-01-14 21:33:00,
2013-01-14 13:43:00,28.0,28.0,-100.00,ENE,75,2.0,4.0,98,0.00,,,0.01,86.000000,,2013-01-14 21:43:00,
2013-01-14 13:53:00,28.0,28.0,-100.00,ENE,75,2.0,4.0,98,0.00,,,0.01,86.000000,,2013-01-14 21:53:00,
2013-01-14 14:02:00,28.0,28.0,-100.00,ENE,75,2.0,4.0,98,0.00,,,0.01,86.000000,,2013-01-14 22:02:00,
2013-01-14 14:11:00,28.0,28.0,-100.00,ENE,75,2.0,4.0,98,0.00,,,0.01,86.000000,,2013-01-14 22:11:00,
2013-01-14 14:12:00,29.0,29.0,-100.00,NE,48,1.0,3.0,98,0.00,,,-99.99,64.000000,,2013-01-14 22:12:00,
2013-01-14 14:33:00,29.0,29.0,-100.00,NE,48,1.0,3.0,98,0.00,,,-99.99,64.000000,,2013-01-14 22:33:00,
2013-01-14 14:43:00,29.0,29.0,-100.00,NE,48,1.0,3.0,98,0.00,,,-99.99,64.000000,,2013-01-14 22:43:00,
2013-01-14 14:52:00,29.0,29.0,-100.00,NE,48,1.0,3.0,98,0.00,,,-99.99,64.000000,,2013-01-14 22:52:00,
2013-01-14 15:02:00,29.0,29.0,-100.00,NE,48,1.0,3.0,98,0.00,,,-99.99,64.000000,,2013-01-14 23:02:00,
2013-01-14 15:12:00,30.0,30.0,-100.00,South,179,1.0,3.0,99,0.00,,,0.00,38.000000,,2013-01-14 23:12:00,
2013-01-14 15:33:00,30.0,30.0,-100.00,South,179,1.0,3.0,99,0.00,,,0.00,38.000000,,2013-01-14 23:33:00,
2013-01-14 15:43:00,30.0,30.0,-100.00,South,179,1.0,3.0,99,0.00,,,0.00,38.000000,,2013-01-14 23:43:00,
2013-01-14 15:53:00,30.0,30.0,-100.00,South,179,1.0,3.0,99,0.00,,,0.00,38.000000,,2013-01-14 23:53:00,
2013-01-14 16:02:00,30.0,30.0,-100.00,South,179,1.0,3.0,99,0.00,,,0.00,38.000000,,2013-01-15 00:02:00,
2013-01-14 16:12:00,30.0,30.0,-100.00,ESE,110,1.0,5.0,99,0.00,,,0.00,27.000000,,2013-01-15 00:12:00,
2013-01-14 16:33:00,30.0,30.0,-100.00,ESE,110,1.0,5.0,99,0.00,,,0.00,27.000000,,2013-01-15 00:33:00,
2013-01-14 16:43:00,30.0,30.0,-100.00,ESE,110,1.0,5.0,99,0.00,,,0.00,27.000000,,2013-01-15 00:43:00,
2013-01-14 16:53:00,30.0,30.0,-100.00,ESE,110,1.0,5.0,99,0.00,,,0.00,27.000000,,2013-01-15 00:53:00,
2013-01-14 17:02:00,30.0,30.0,-100.00,ESE,110,1.0,5.0,99,0.00,,,0.00,27.000000,,2013-01-15 01:02:00,
2013-01-14 18:33:00,30.0,30.0,-100.00,NE,55,2.0,5.0,100,-99.99,,,0.00,0.000000,,2013-01-15 02:33:00,
2013-01-14 18:42:00,30.0,30.0,-100.00,NE,55,2.0,5.0,100,-99.99,,,0.00,0.000000,,2013-01-15 02:42:00,
2013-01-14 18:53:00,30.0,30.0,-100.00,NE,55,2.0,5.0,100,-99.99,,,0.00,0.000000,,2013-01-15 02:53:00,
2013-01-14 19:02:00,30.0,30.0,-100.00,NE,55,2.0,5.0,100,-99.99,,,0.00,0.000000,,2013-01-15 03:02:00,
2013-01-14 19:11:00,30.0,30.0,-100.00,NE,55,2.0,5.0,100,-99.99,,,0.00,0.000000,,2013-01-15 03:11:00,
2013-01-14 19:12:00,30.0,30.0,-100.00,East,85,2.0,5.0,100,0.00,,,0.00,0.000000,,2013-01-15 03:12:00,
2013-01-14 19:33:00,30.0,30.0,-100.00,East,85,2.0,5.0,100,0.00,,,0.00,0.000000,,2013-01-15 03:33:00,
2013-01-14 19:42:00,30.0,30.0,-100.00,East,85,2.0,5.0,100,0.00,,,0.00,0.000000,,2013-01-15 03:42:00,
2013-01-14 19:52:00,30.0,30.0,-100.00,East,85,2.0,5.0,100,0.00,,,0.00,0.000000,,2013-01-15 03:52:00,
2013-01-14 20:02:00,30.0,30.0,-100.00,East,85,2.0,5.0,100,0.00,,,0.00,0.000000,,2013-01-15 04:02:00,
2013-01-14 20:12:00,29.0,29.0,-100.00,East,97,1.0,4.0,100,0.00,,,0.00,0.000000,,2013-01-15 04:12:00,
2013-01-14 20:33:00,29.0,29.0,-100.00,East,97,1.0,4.0,100,0.00,,,0.00,0.000000,,2013-01-15 04:33:00,
2013-01-14 20:42:00,29.0,29.0,-100.00,East,97,1.0,4.0,100,0.00,,,0.00,0.000000,,2013-01-15 04:42:00,
2013-01-14 20:52:00,29.0,29.0,-100.00,East,97,1.0,4.0,100,0.00,,,0.00,0.000000,,2013-01-15 04:52:00,
2013-01-14 21:03:00,29.0,29.0,-100.00,East,97,1.0,4.0,100,0.00,,,0.00,0.000000,,2013-01-15 05:03:00,
2013-01-14 21:12:00,29.0,29.0,-100.00,East,79,1.0,3.0,100,0.00,,,0.00,0.000000,,2013-01-15 05:12:00,
2013-01-14 21:33:00,29.0,29.0,-100.00,East,79,1.0,3.0,100,0.00,,,0.00,0.000000,,2013-01-15 05:33:00,
2013-01-14 21:42:00,29.0,29.0,-100.00,East,79,1.0,3.0,100,0.00,,,0.00,0.000000,,2013-01-15 05:42:00,
2013-01-14 21:52:00,29.0,29.0,-100.00,East,79,1.0,3.0,100,0.00,,,0.00,0.000000,,2013-01-15 05:52:00,
2013-01-14 22:02:00,29.0,29.0,-100.00,East,79,1.0,3.0,100,0.00,,,0.00,0.000000,,2013-01-15 06:02:00,
2013-01-14 22:33:00,29.0,29.0,-100.00,NE,55,1.0,2.0,100,0.00,,,0.00,0.000000,,2013-01-15 06:33:00,
2013-01-14 22:43:00,29.0,29.0,-100.00,NE,55,1.0,2.0,100,0.00,,,0.00,0.000000,,2013-01-15 06:43:00,
2013-01-14 22:52:00,29.0,29.0,-100.00,NE,55,1.0,2.0,100,0.00,,,0.00,0.000000,,2013-01-15 06:52:00,
2013-01-14 23:02:00,29.0,29.0,-100.00,NE,55,1.0,2.0,100,0.00,,,0.00,0.000000,,2013-01-15 07:02:00,
2013-01-14 23:11:00,29.0,29.0,-100.00,NE,55,1.0,2.0,100,0.00,,,0.00,0.000000,,2013-01-15 07:11:00,
2013-01-14 23:12:00,29.0,29.0,-100.00,East,87,1.0,2.0,100,0.00,,,0.00,0.000000,,2013-01-15 07:12:00,
2013-01-14 23:33:00,29.0,29.0,-100.00,East,87,1.0,2.0,100,0.00,,,0.00,0.000000,,2013-01-15 07:33:00,
2013-01-14 23:43:00,29.0,29.0,-100.00,East,87,1.0,2.0,100,0.00,,,0.00,0.000000,,2013-01-15 07:43:00,
2013-01-14 23:52:00,29.0,29.0,-100.00,East,87,1.0,2.0,100,0.00,,,0.00,0.000000,,2013-01-15 07:52:00,